Location: Paderno d�Adda
(45.6667°N, 9.4333°E)
Time: 10:25:52
(UTC+00:00)

ATLAS 3B R/B - Pass Details

Date: 18 January 2021
Orbit: 1006 x 1189 km, 63.8° (Epoch: 24 February)

Event Time Altitude Azimuth Distance (km) Brightness Sun altitude
Rises 18:34:37 0° 311° (NW) 3,898 6.3 -25.1°
Reaches altitude 10° 18:37:59 10° 296° (WNW) 2,970 5.8 -25.6°
Maximum altitude 18:42:51 20° 252° (WSW) 2,333 5.2 -26.5°
Drops below altitude 10° 18:47:51 10° 208° (SSW) 3,046 5.4 -27.4°
Sets 18:51:22 0° 193° (SSW) 4,028 5.9 -28.0°
